Погода в Брацлавке

Россия / Оренбургская область     51°40′17″N   60°16′20″E
темп.,
°C
ветер,
м/с
пор.,
м/с
влажн.,
%
обл.,
%
осадки,
мм/ч
давл.,
гПа
погр.,
м
26 сентября, вс
вс2623:00+15вюв81629100 0.1 1011450
02:00+14вюв8163082 0.0 1009424
05:00+14юв71428100 0.0 1008370
08:00+13вюв61231100 0.0 1008323
11:00+17юв6921100 0.0 1008681
14:00+20вюв6813100 0.0 10061538
17:00+20в5815100 0.0 1004724
20:00+16в91517100 0.0 1004540
27 сентября, пн
пн2723:00+13всв81330100 0.0 1004570
02:00+11всв81241100 0.0 1004525
05:00+9всв71150100 0.0 1004559
08:00+7св71045100 0.0 1006622
11:00+8св775729 0.0 1007865
14:00+6св666979 0.0 1008779
17:00+5св668078 0.0 1009565
20:00+6всв61069100 0.0 1008412
28 сентября, вт
вт2823:00+5всв91374100 0.5 1008530
02:00+2всв81291100 4.1 1009495
05:00+1св61199100 7.5 1010392
08:00+1св71297100 2.0 1011403
11:00+1ссв71298100 2.2 1012528
14:00+2ссв71297100 0.1 1013674
17:00+2ссв81396100 0.3 1015830
20:00+2ссв81395100 0.2 1017855
29 сентября, ср
ср2923:00+2ссв81396100 0.4 1018854
02:00+1ссв7139393 0.1 1018841
05:000с8149197 0.2 1019625
08:00+1ссв71392100 0.0 1020748
11:00+2ссв81288100 0.1 1021812
14:00+4ссв897194 0.1 10221103
17:00+5ссв71074100 0.5 10231113
20:00+4ссв6108273 0.3 1024551
30 сентября, чт
чт3023:00+3с498432 0.3 1025298
02:00+1с49875 0.0 1026189
05:00+1с48895 0.0 1026160
08:00+1ссв48855 0.0 1027237
11:00+5ссв56625 0.0 1027751
14:00+7ссв4552100 0.1 10261638
17:00+6ссв345498 0.1 10261082
20:00+5с2463100 0.0 1026121